Weather History for Kerkyra, Greece

Change the Weather History Date:

Friday, October 4, 2013

  Actual Average Record
Temperature  
Mean Temperature 63 °F -  
Max Temperature 73 °F 73 °F 81 °F (2012)
Min Temperature 53 °F 55 °F 53 °F (2013)
Degree Days  
Heating Degree Days 2    
Growing Degree Days 13 (Base 50)    
Moisture  
Dew Point 52 °F    
Average Humidity 67    
Maximum Humidity 94    
Minimum Humidity 43    
Precipitation  
Precipitation 0.00 in 0.20 in - ()
Sea Level Pressure  
Sea Level Pressure 30.20 in    
Wind  
Wind Speed 1 mph ()    
Max Wind Speed 8 mph    
Max Gust Speed -    
Visibility 6.3 miles    
Events      
Averages and records for this station are not official NWS values.
T = Trace of Precipitation, MM = Missing Value Source: Averaged Metar Reports

Daily Weather History Graph

Daily Weather History Graph

Search for Another Location

Airport:

Trip Planner

Search our weather history database for the weather conditions in past years. The results will help you decide how hot, cold, wet, or windy it might be!

Date:

Astronomy

Oct. 04, 2013 Rise Set
Actual Time 7:39 AM EEST 7:18 PM EEST
Civil Twilight 7:12 AM EEST 7:44 PM EEST
Nautical Twilight 6:41 AM EEST 8:16 PM EEST
Astronomical Twilight 6:09 AM EEST 8:47 PM EEST
Moon 6:55 AM EEST (10/4) 6:50 PM EEST (10/4)
Length of Visible Light 12h 32m
Length of Day
11h 38m
Waning Crescent, 1% of the Moon is Illuminated
Oct 4
Waning Crescent
Oct 5
New
Oct 12
First Quarter
Oct 19
Full
Oct 27
Last Quarter

Hourly Weather History & Observations

Time (EEST) Temp. Dew Point Humidity Pressure Visibility Wind Dir Wind Speed Gust Speed Precip Events Conditions
12:20 AM 60.8 °F 50.0 °F 68% 30.15 in - Calm Calm - N/A   Clear
12:50 AM 60.8 °F 50.0 °F 68% 30.15 in - Calm Calm - N/A   Clear
1:20 AM 60.8 °F 50.0 °F 68% 30.15 in - Calm Calm - N/A   Clear
1:50 AM 59.0 °F 51.8 °F 77% 30.15 in - Calm Calm - N/A   Clear
2:20 AM 59.0 °F 51.8 °F 77% 30.15 in - Calm Calm - N/A   Clear
2:50 AM 57.2 °F 50.0 °F 77% 30.15 in - Calm Calm - N/A   Clear
3:00 AM 56 °F 49 °F 72% 30.17 in 6 mi Calm Calm - -  
3:20 AM 55.4 °F 50.0 °F 82% 30.15 in - Calm Calm - N/A   Clear
3:50 AM 55.4 °F 50.0 °F 82% 30.15 in - Calm Calm - N/A   Clear
4:20 AM 55.4 °F 50.0 °F 82% 30.15 in - Calm Calm - N/A   Clear
4:50 AM 55.4 °F 51.8 °F 88% 30.15 in 6.2 mi Calm Calm - N/A   Partly Cloudy
5:20 AM 53.6 °F 51.8 °F 94% 30.15 in 6.2 mi Calm Calm - N/A   Partly Cloudy
5:50 AM 53.6 °F 50.0 °F 88% 30.18 in 6.2 mi Calm Calm - N/A   Partly Cloudy
6:20 AM 53.6 °F 50.0 °F 88% 30.18 in 6.2 mi Calm Calm - N/A   Partly Cloudy
7:20 AM 53.6 °F 50.0 °F 88% 30.18 in 6.2 mi Calm Calm - N/A   Partly Cloudy
7:50 AM 53.6 °F 50.0 °F 88% 30.18 in 6.2 mi Calm Calm - N/A   Partly Cloudy
8:20 AM 53.6 °F 50.0 °F 88% 30.18 in 6.2 mi Calm Calm - N/A   Partly Cloudy
8:50 AM 55.4 °F 46.4 °F 72% 30.18 in 6.2 mi Calm Calm - N/A   Partly Cloudy
9:20 AM 57.2 °F 51.8 °F 82% 30.18 in 6.2 mi Calm Calm - N/A   Partly Cloudy
9:50 AM 60.8 °F 50.0 °F 68% 30.21 in 6.2 mi Calm Calm - N/A   Partly Cloudy
10:20 AM 66.2 °F 51.8 °F 60% 30.21 in 6.2 mi ENE 4.6 mph - N/A   Partly Cloudy
10:50 AM 69.8 °F 53.6 °F 56% 30.21 in 6.2 mi ENE 5.8 mph - N/A   Partly Cloudy
11:20 AM 69.8 °F 53.6 °F 56% 30.21 in 6.2 mi SE 5.8 mph - N/A   Partly Cloudy
11:50 AM 71.6 °F 51.8 °F 50% 30.21 in 6.2 mi ESE 4.6 mph - N/A   Scattered Clouds
12:20 PM 71.6 °F 51.8 °F 50% 30.21 in 6.2 mi SE 6.9 mph - N/A   Scattered Clouds
12:50 PM 73.4 °F 50.0 °F 44% 30.24 in 6.2 mi SE 6.9 mph - N/A   Scattered Clouds
1:20 PM 73.4 °F 50.0 °F 44% 30.24 in 6.2 mi SE 6.9 mph - N/A   Scattered Clouds
1:50 PM 73.4 °F 53.6 °F 50% 30.21 in 6.2 mi SE 6.9 mph - N/A   Scattered Clouds
2:20 PM 73.4 °F 53.6 °F 50% 30.21 in 6.2 mi ESE 8.1 mph - N/A   Scattered Clouds
2:50 PM 71.6 °F 53.6 °F 53% 30.21 in 6.2 mi SSE 5.8 mph - N/A   Scattered Clouds
3:00 PM 71 °F 53 °F 43% 30.23 in 12 mi SSE 5.8 mph - -   Partly Cloudy
3:20 PM 71.6 °F 53.6 °F 53% 30.21 in 6.2 mi SSE 5.8 mph - N/A   Scattered Clouds
3:50 PM 71.6 °F 53.6 °F 53% 30.21 in 6.2 mi SSW 4.6 mph - N/A   Scattered Clouds
4:20 PM 71.6 °F 53.6 °F 53% 30.21 in 6.2 mi South 4.6 mph - N/A   Scattered Clouds
4:50 PM 69.8 °F 53.6 °F 56% 30.21 in 6.2 mi Calm Calm - N/A   Scattered Clouds
5:20 PM 69.8 °F 53.6 °F 56% 30.21 in 6.2 mi Calm Calm - N/A   Scattered Clouds
5:50 PM 69.8 °F 53.6 °F 56% 30.21 in 6.2 mi NW 4.6 mph - N/A   Scattered Clouds
6:20 PM 68.0 °F 53.6 °F 60% 30.21 in 6.2 mi NW 4.6 mph - N/A   Scattered Clouds
6:50 PM 68.0 °F 55.4 °F 64% 30.21 in 6.2 mi NW 4.6 mph - N/A   Scattered Clouds
7:20 PM 66.2 °F 50.0 °F 56% 30.21 in 6.2 mi NW 4.6 mph - N/A   Scattered Clouds
7:50 PM 66.2 °F 53.6 °F 64% 30.21 in 6.2 mi Calm Calm - N/A   Partly Cloudy
8:20 PM 66.2 °F 53.6 °F 64% 30.21 in 6.2 mi Calm Calm - N/A   Partly Cloudy
8:50 PM 62.6 °F 53.6 °F 72% 30.21 in 6.2 mi Calm Calm - N/A   Partly Cloudy
9:00 PM 63 °F 53 °F 61% 30.23 in 6 mi Calm Calm - -   Scattered Clouds
9:20 PM 62.6 °F 53.6 °F 72% 30.21 in 6.2 mi Calm Calm - N/A   Partly Cloudy
9:50 PM 62.6 °F 53.6 °F 72% 30.21 in 6.2 mi Calm Calm - N/A   Partly Cloudy
10:20 PM 60.8 °F 53.6 °F 77% 30.21 in 6.2 mi Calm Calm - N/A   Partly Cloudy
10:50 PM 60.8 °F 50.0 °F 68% 30.24 in 6.2 mi Calm Calm - N/A   Partly Cloudy
11:20 PM 60.8 °F 50.0 °F 68% 30.24 in 6.2 mi Calm Calm - N/A   Partly Cloudy
11:50 PM 59.0 °F 51.8 °F 77% 30.24 in 6.2 mi Calm Calm - N/A   Partly Cloudy